Regional Weather Roundup
Issued by NWS Kansas City/Pleasant Hill, MO

Home | Current Version | Previous Version | Text Only | Print | Product List | Glossary On
Versions: 1 2 3 4 5 6 7 8 9 10 11 12 13 14 15 16 17 18 19 20 21 22 23 24 25 26 27 28 29 30 31 32 33 34 35 36 37 38 39 40 41 42 43 44 45 46 47 48 49 50
401
ASUS43 KEAX 221810
RWREAX

WEATHER ROUNDUP FOR EASTERN KANSAS AND NORTHWEST MISSOURI
NATIONAL WEATHER SERVICE KANSAS CITY/PLEASANT HILL MO
100 PM CDT FRI MAY 22 2015

KSZ040-057-103>105-MOZ028-029-037-043-221900-
...KANSAS CITY METROPOLITAN AREA...

CITY           SKY/WX    TMP DP  RH WIND       PRES   REMARKS
K.C. INTL      CLOUDY    61  49  64 S10       30.27F
6HR MIN TEMP:  54; 6HR MAX TEMP:  61;

K.C. DOWNTOWN  CLOUDY    64  46  52 S7        30.26F
6HR MIN TEMP:  53; 6HR MAX TEMP:  64;

LEES SUMMIT    CLOUDY    62  46  55 S7        30.27F
6HR MIN TEMP:  49; 6HR MAX TEMP:  63;

OLATHE - IXD   CLOUDY    62  46  55 SE12      30.27F
6HR MIN TEMP:  50; 6HR MAX TEMP:  62;

OLATHE - OJC   CLOUDY    61  47  59 S8        30.27S
6HR MIN TEMP:  50; 6HR MAX TEMP:  61;

LAWRENCE       CLOUDY    63  47  55 SE10      30.26S

$$

MOZ001>008-011>017-020>025-030>033-038>040-044>046-053-054-221900-
...NORTHERN AND CENTRAL MISSOURI...

CITY           SKY/WX    TMP DP  RH WIND       PRES   REMARKS
ST. JOSEPH     CLOUDY    62  49  62 S6        30.26F
6HR MIN TEMP:  49; 6HR MAX TEMP:  63;

MOSBY            N/A     63  46  55 CALM      30.27F
WARRENSBURG    CLOUDY    63  46  55 S7        30.28F
WHITEMAN AFB   CLOUDY    63  48  58 SW7       30.27F
6HR MIN TEMP:  49; 6HR MAX TEMP:  63;

CLINTON        CLOUDY    66  52  59 S5        30.30S
SEDALIA        CLOUDY    63  50  62 W7        30.30S
6HR MIN TEMP:  51; 6HR MAX TEMP:  66;

WARSAW         NOT AVBL
CHILLICOTHE      N/A     67  51  56 VRB3      30.27S
6HR MIN TEMP:  50; 6HR MAX TEMP:  67;

KIRKSVILLE     CLOUDY    71  50  47 CALM      30.25S
6HR MIN TEMP:  53; 6HR MAX TEMP:  72;


$$

MOZ041-047>049-056>058-063>065-088>090-097-221900-
...EASTERN AND SOUTHERN MISSOURI...

CITY           SKY/WX    TMP DP  RH WIND       PRES   REMARKS
ST. LOUIS INTL PTSUNNY   75  51  43 S3        30.25S
6HR MIN TEMP:  55; 6HR MAX TEMP:  75;

SPIRIT OF STL  PTSUNNY   72  49  44 W7        30.24S
COLUMBIA       CLOUDY    67  50  54 W7        30.27S
JEFFERSON CITY CLOUDY    69  48  47 W7        30.27S
ROLLA          CLOUDY    64  51  62 SW10      30.28R
OSAGE BEACH    CLOUDY    66  48  52 SW7       30.29F
SPRINGFIELD    PTSUNNY   66  45  46 VRB3      30.28F
BRANSON        CLOUDY    64  45  48 E8        30.29F
JOPLIN         CLOUDY    63  47  55 S7        30.28F
WEST PLAINS    PTSUNNY   64  46  52 CALM      30.31S

$$

IAZ060-094-KSZ022-034>040-054-083-096-NEZ052-066-093-221900-
...KANSAS...SOUTHEAST NEBRASKA AND IOWA...

CITY           SKY/WX    TMP DP  RH WIND       PRES   REMARKS
TOPEKA         CLOUDY    62  48  60 SE12      30.25S
6HR MIN TEMP:  48; 6HR MAX TEMP:  63;

MANHATTAN      CLOUDY    62  48  60 S13       30.23R
EMPORIA        CLOUDY    63  49  60 S20       30.23R
CHANUTE        CLOUDY    62  49  62 SE10      30.22F
WICHITA        LGT RAIN  56  54  93 S14       30.20F FOG
OMAHA          CLOUDY    68  44  42 SE5       30.23S
LINCOLN        CLOUDY    61  47  59 S5        30.26R
FALLS CITY     CLOUDY    62  47  57 S6        30.25S
LAMONI         CLOUDY    70  52  52 SW8       30.24S
DES MOINES     CLOUDY    74  37  26 W3        30.22F

$$




USA.gov is the U.S. government's official web portal to all federal, state and local government web resources and services.